sat.trackr.live / text

‹ back to catalog

STARLINK-35074

NORAD 65422 · 2025-192U

PAYLOAD ACTIVE UNKNOWN

§ Identity

Operator
Country
US
Launch date
2025-08-31
Launch site
AFETR
Launch vehicle
Mass (kg)
RCS (m²)

Purposes: comms

External: N2YO · Heavens-Above · Gunter

§ Orbital elements

Epoch: 2026-05-24T23:28:49.949760Z

Period
94.11 min
Inclination
53.1551°
Eccentricity
0.0001387
Mean motion
15.30204479 rev/d
Perigee alt
474.3 km
Apogee alt
476.2 km
Semi-major
6,853.3 km
B*
7.4813e-4
RAAN
238.0403°
Arg perigee
90.3859°
Mean anomaly
269.7301°
Rev number
4,106

§ Raw data

STARLINK-350741 65422U 25192U   26144.97835590  .00021867  00000+0  74813-3 0  99902 65422  53.1551 238.0403 0001387  90.3859 269.7301 15.30204479 41068

JSON: /api/v1/satellites/65422 · /tle

For live sub-satellite position, see the globe view (requires WebGL).

§ Visibility from observer

Set your observer location to see the next 7 days of passes ≥ 10°. The values pass through the URL so the page stays shareable.

No JS? Fill the form by hand. The geolocation button needs JavaScript.